TimeAWST,TemperatureF,Dew PointF,Humidity,Sea Level PressureIn,VisibilityMPH,Wind Direction,Wind SpeedMPH,Gust SpeedMPH,PrecipitationIn,Events,Conditions,WindDirDegrees,DateUTC
12:00 AM,93,69,36,29.56,,WNW,18.4,,,,,290,2013-01-16 16:00:00
12:00 AM,93.2,69.8,46,29.62,-9999.0,WNW,18.4,-,N/A,,Unknown,290,2013-01-16 16:00:00
12:35 AM,93.2,69.8,46,29.68,-9999.0,South,11.5,-,N/A,,Unknown,190,2013-01-16 16:35:00
12:50 AM,84.2,69.8,62,29.71,-9999.0,SE,21.9,35.7,N/A,,Unknown,140,2013-01-16 16:50:00
1:00 AM,80.6,71.6,74,29.74,-9999.0,SE,26.5,-,N/A,,Unknown,130,2013-01-16 17:00:00
1:04 AM,78.8,71.6,78,29.74,-9999.0,ESE,24.2,35.7,N/A,,Unknown,120,2013-01-16 17:04:00
1:26 AM,75.2,73.4,94,29.77,-9999.0,East,16.1,31.1,N/A,,Unknown,80,2013-01-16 17:26:00
1:51 AM,73.4,69.8,88,29.77,-9999.0,ENE,19.6,31.1,N/A,,Unknown,70,2013-01-16 17:51:00
2:00 AM,73,70,87,29.71,,ENE,21.9,,,,,70,2013-01-16 18:00:00
2:00 AM,73.4,69.8,88,29.77,-9999.0,ENE,21.9,-,N/A,,Unknown,70,2013-01-16 18:00:00
2:26 AM,73.4,68.0,83,29.80,-9999.0,ENE,17.3,28.8,N/A,,Unknown,60,2013-01-16 18:26:00
3:00 AM,74,72,91,29.70,,East,11.5,,,,,100,2013-01-16 19:00:00
3:00 AM,73.4,71.6,94,29.77,-9999.0,East,11.5,-,N/A,,Unknown,100,2013-01-16 19:00:00
4:00 AM,75.2,71.6,89,29.77,-9999.0,SW,6.9,-,N/A,,Unknown,230,2013-01-16 20:00:00
5:00 AM,76,70,75,29.64,,West,25.3,,,,,260,2013-01-16 21:00:00
5:00 AM,75.2,69.8,83,29.71,-9999.0,West,25.3,-,N/A,,Unknown,260,2013-01-16 21:00:00
5:11 AM,77.0,69.8,78,29.74,-9999.0,SW,13.8,25.3,N/A,,Unknown,230,2013-01-16 21:11:00
6:00 AM,76,70,76,29.68,,WSW,19.6,,,,,250,2013-01-16 22:00:00
6:00 AM,77.0,69.8,78,29.74,-9999.0,WSW,19.6,-,N/A,,Unknown,250,2013-01-16 22:00:00
6:07 AM,77.0,69.8,78,29.74,-9999.0,WSW,19.6,31.1,N/A,,Unknown,250,2013-01-16 22:07:00
7:00 AM,77.0,71.6,83,29.74,-9999.0,West,9.2,-,N/A,,Unknown,280,2013-01-16 23:00:00
8:00 AM,79,70,68,29.63,,WSW,11.5,,,,,250,2013-01-17 00:00:00
8:00 AM,78.8,69.8,74,29.68,-9999.0,WSW,11.5,-,N/A,,Unknown,250,2013-01-17 00:00:00
9:00 AM,83,69,54,29.61,,SSE,9.2,,,,,150,2013-01-17 01:00:00
9:00 AM,84.2,69.8,62,29.68,-9999.0,SSE,9.2,-,N/A,,Unknown,150,2013-01-17 01:00:00
10:00 AM,86.0,69.8,58,29.65,-9999.0,SSE,10.4,-,N/A,,Unknown,160,2013-01-17 02:00:00
11:00 AM,90,70,42,29.59,,SE,12.7,,,,,130,2013-01-17 03:00:00
11:00 AM,91.4,69.8,49,29.65,-9999.0,SE,12.7,-,N/A,,Unknown,130,2013-01-17 03:00:00
12:00 PM,91,71,42,29.57,,ESE,15.0,,,,,120,2013-01-17 04:00:00
12:00 PM,91.4,71.6,52,29.62,-9999.0,ESE,15.0,-,N/A,,Unknown,120,2013-01-17 04:00:00
1:00 PM,93.2,68.0,44,29.62,-9999.0,SSE,8.1,-,N/A,,Unknown,160,2013-01-17 05:00:00
2:00 PM,96,68,30,29.55,,SSW,2.3,,,,,210,2013-01-17 06:00:00
2:00 PM,96.8,68.0,39,29.62,-9999.0,SSW,2.3,-,N/A,,Unknown,210,2013-01-17 06:00:00
3:00 PM,96,68,30,29.54,,West,5.8,,,,,270,2013-01-17 07:00:00
3:00 PM,95.0,68.0,41,29.59,-9999.0,West,5.8,-,N/A,,Unknown,270,2013-01-17 07:00:00
4:00 PM,93.2,71.6,49,29.59,-9999.0,NNW,10.4,-,N/A,,Unknown,330,2013-01-17 08:00:00
5:00 PM,94,71,38,,,NW,9.2,,,,,310,2013-01-17 09:00:00
5:00 PM,95.0,71.6,47,29.59,-9999.0,NW,9.2,-,N/A,,Unknown,310,2013-01-17 09:00:00
6:00 PM,92,70,40,29.54,,NW,8.1,,,,,320,2013-01-17 10:00:00
6:00 PM,91.4,69.8,49,29.59,-9999.0,NW,8.1,-,N/A,,Unknown,320,2013-01-17 10:00:00
7:00 PM,87.8,71.6,58,29.62,-9999.0,NW,5.8,-,N/A,,Unknown,320,2013-01-17 11:00:00
8:00 PM,87,73,54,29.55,,NW,10.4,,,,,310,2013-01-17 12:00:00
8:00 PM,87.8,73.4,62,29.62,-9999.0,NW,10.4,-,N/A,,Unknown,310,2013-01-17 12:00:00
9:00 PM,87,71,49,29.55,,NW,11.5,,,,,310,2013-01-17 13:00:00
9:00 PM,86.0,71.6,62,29.62,-9999.0,NW,11.5,-,N/A,,Unknown,310,2013-01-17 13:00:00
10:00 PM,86.0,69.8,58,29.62,-9999.0,NW,10.4,-,N/A,,Unknown,310,2013-01-17 14:00:00
11:00 PM,85,71,55,29.54,,WNW,18.4,,,,,300,2013-01-17 15:00:00
11:00 PM,86.0,71.6,62,29.59,-9999.0,WNW,18.4,-,N/A,,Unknown,300,2013-01-17 15:00:00